Location: Spring Creek
(38.2870°N, 100.2160°W)
Time: 18:12:42
(UTC+00:00)

DELTA 2 R/B (1) - Pass Details

Date: 30 September 2021
Orbit: 790 x 803 km, 39.6° (Epoch: 26 October)

Event Time Altitude Azimuth Distance (km) Brightness Sun altitude
Rises 11:50:07 0° 212° (SSW) 3,264 6.4 -9.8°
Reaches altitude 10° 11:52:57 10° 200° (SSW) 2,339 5.8 -9.3°
Maximum altitude 11:57:25 25° 146° (SE) 1,529 5.5 -8.4°
Drops below altitude 10° 12:01:54 10° 92° (E) 2,351 7.8 -7.5°
Sets 12:04:45 0° 79° (E) 3,285 9.0 -7.0°
